Temperature
4 4 4 4 3 3 3 3 3 2 2 3 3 3 3 3 3 3 3 3 3 3 3 3 3 3 3 3 2 2 2 2 2 2 2 2 2 2
3 3 3 3 3 3 3 2 2 2 2 2 2 2 2 2 2 2 2 2 2 2 2 2 2 2 2 2 2 2 2 2 1 1 1 1 1 1
3 3 3 3 3 3 2 2 2 2 2 2 2 2 2 2 2 2 2 2 2 2 2 2 2 2 2 1 1 1 1 1 1 1 1 1 1 1
2 2 2 2 2 2 2 2 2 1 1 1 2 1 1 1 1 1 1 1 1 1 1 1 1 1 1 1 1 1 1 0 0 0 0 0 0 0
2 2 2 2 2 2 2 1 1 1 1 1 1 1 1 1 1 1 1 1 1 1 1 1 0 0 0 0 0 0 -0 -0 -0 -0 -1 -0 -0 -0
1 1 1 1 1 1 1 1 1 1 0 0 0 0 0 0 0 0 0 0 0 0 0 0 -0 -0 -0 -0 -0 -1 -1 -1 -1 -1 -1 -1 -1 -1
1 1 1 1 1 1 1 1 1 0 0 0 -0 -0 -0 -0 -0 -0 -0 -0 -0 -0 -0 -0 -1 -1 -1 -1 -1 -1 -1 -1 -1 -2 -1 -1 -1 -1
1 0 0 0 0 0 0 0 0 0 -0 -0 -0 -0 -0 -1 -1 -1 -1 -1 -1 -1 -1 -1 -1 -1 -1 -1 -1 -1 -2 -2 -2 -2 -2 -2 -2 -2
-0 -0 -0 -0 -0 -0 -0 -0 -0 -0 -0 -0 -0 -0 -1 -1 -1 -1 -1 -2 -2 -2 -2 -2 -2 -2 -2 -2 -2 -2 -2 -2 -2 -2 -2 -2 -2 -2
-0 -1 -1 -1 -0 -0 -0 -0 -0 -0 -1 -1 -1 -1 -1 -1 -1 -2 -2 -2 -2 -2 -2 -2 -2 -2 -2 -2 -2 -2 -3 -3 -3 -3 -3 -3 -3 -3
-1 -1 -1 -1 -1 -1 -1 -1 -1 -1 -1 -1 -1 -1 -1 -1 -2 -2 -2 -2 -3 -3 -3 -3 -3 -3 -3 -2 -3 -3 -3 -3 -3 -3 -3 -3 -3 -3
-1 -1 -1 -1 -1 -1 -1 -1 -1 -1 -1 -1 -2 -2 -2 -2 -2 -2 -2 -3 -3 -4 -3 -4 -4 -4 -4 -4 -3 -3 -3 -3 -3 -3 -3 -3 -3 -3
-2 -2 -2 -2 -2 -2 -2 -2 -2 -2 -2 -2 -2 -2 -2 -2 -2 -3 -3 -3 -3 -4 -4 -4 -4 -4 -5 -5 -4 -4 -4 -4 -4 -4 -4 -4 -4 -4
-2 -2 -2 -2 -2 -2 -2 -2 -2 -2 -2 -2 -2 -2 -2 -3 -3 -3 -3 -4 -4 -4 -4 -4 -4 -4 -5 -5 -5 -4 -4 -4 -4 -4 -4 -4 -4 -4
-2 -2 -2 -2 -2 -2 -2 -3 -3 -3 -3 -3 -3 -3 -3 -3 -3 -4 -4 -4 -4 -4 -4 -4 -4 -4 -5 -5 -5 -4 -5 -5 -5 -5 -5 -5 -4 -4
-3 -3 -3 -3 -3 -3 -3 -3 -3 -3 -3 -3 -3 -3 -3 -4 -4 -4 -4 -4 -4 -4 -4 -4 -5 -5 -5 -4 -5 -5 -5 -5 -5 -5 -5 -5 -5 -5
-3 -3 -3 -3 -3 -3 -3 -4 -4 -4 -4 -4 -4 -4 -4 -4 -4 -5 -5 -5 -5 -5 -5 -5 -5 -5 -5 -5 -5 -5 -5 -5 -5 -5 -5 -5 -5 -5
-3 -3 -3 -3 -3 -3 -4 -4 -4 -4 -4 -4 -4 -4 -4 -5 -5 -5 -5 -5 -5 -5 -5 -5 -5 -5 -5 -5 -5 -5 -6 -6 -6 -6 -6 -6 -5 -5
-4 -4 -4 -4 -4 -4 -4 -4 -4 -4 -5 -5 -5 -5 -5 -5 -5 -5 -5 -5 -5 -6 -6 -6 -6 -6 -6 -6 -6 -6 -6 -6 -6 -6 -6 -6 -6 -5
-4 -4 -4 -4 -4 -4 -4 -5 -5 -5 -5 -5 -5 -5 -5 -5 -5 -6 -6 -6 -6 -6 -6 -6 -6 -6 -6 -6 -6 -6 -6 -6 -6 -6 -6 -6 -6 -5
-5 -5 -5 -4 -5 -5 -5 -5 -5 -5 -5 -5 -5 -5 -6 -6 -6 -6 -6 -6 -6 -6 -6 -6 -6 -6 -6 -6 -6 -6 -6 -6 -7 -7 -6 -6 -6 -6
-5 -5 -5 -5 -5 -5 -5 -5 -5 -5 -5 -5 -6 -6 -6 -6 -6 -6 -6 -6 -6 -6 -6 -6 -6 -6 -6 -7 -7 -7 -6 -6 -6 -6 -6 -6 -7 -6
-5 -5 -5 -5 -5 -5 -5 -5 -6 -6 -6 -6 -6 -6 -6 -6 -6 -6 -6 -6 -6 -6 -6 -7 -7 -7 -7 -7 -7 -7 -7 -6 -6 -6 -6 -6 -6 -6
Wind_Speed
4 3 3 3 2 2 2 2 3 3 4 3 2 3 5 5 6 6 7 8 9 9 9 9 10 10 9 10 10 10 10 11 11 12 12 13 13 13
3 4 4 3 3 2 3 3 3 4 4 3 3 3 5 5 6 6 7 8 8 9 9 9 9 9 9 9 10 10 10 11 11 11 12 13 13 13
4 4 5 3 3 3 2 2 3 3 5 4 3 3 3 3 5 6 6 6 7 9 9 9 9 9 9 9 9 9 10 11 11 11 11 12 12 13
5 4 5 3 3 3 3 3 3 3 3 5 3 2 3 3 3 4 5 6 7 8 9 9 8 8 8 8 8 9 9 10 10 10 11 11 12 13
5 5 5 4 4 4 4 4 3 3 3 3 4 2 2 2 2 3 4 4 5 7 7 7 8 9 9 9 8 9 9 9 9 9 10 11 12 12
5 5 5 6 6 5 5 5 4 4 3 3 4 3 2 2 1 2 3 2 3 5 6 7 8 9 9 9 9 9 8 9 9 9 10 10 12 13
5 5 5 6 7 6 5 4 4 4 3 3 4 3 3 2 2 2 3 3 3 3 2 4 5 5 6 8 8 8 8 9 9 9 10 10 11 12
5 5 5 5 7 8 8 6 5 5 4 4 4 5 5 4 3 2 2 3 4 2 2 4 3 4 5 5 7 8 8 9 9 9 10 11 12 13
5 5 4 5 5 5 6 7 7 7 7 5 5 6 5 4 3 3 3 3 5 3 2 4 2 3 4 7 8 8 8 8 9 10 11 11 12 12
5 5 5 5 5 5 5 4 5 5 6 6 5 5 5 4 4 4 3 3 3 2 2 2 2 3 4 6 7 7 7 8 9 10 10 11 12 12
5 5 5 6 7 5 4 4 4 4 5 6 6 5 6 5 3 1 1 1 3 2 1 1 2 3 4 3 4 6 7 8 9 10 10 10 10 10
4 4 6 6 6 5 4 4 5 4 2 2 2 3 3 3 3 3 3 2 2 2 1 1 1 2 3 2 2 4 5 7 9 10 10 9 10 7
4 4 4 7 7 6 5 4 5 3 2 2 2 1 1 2 2 2 2 3 3 3 2 1 1 1 2 3 3 3 3 4 5 6 8 9 9 8
4 3 4 5 6 6 4 3 3 2 2 2 1 2 2 1 1 1 2 3 4 4 4 3 2 2 3 4 4 3 3 4 4 4 5 8 9 10
3 5 5 4 3 3 3 3 2 2 2 2 2 2 2 2 1 1 1 2 3 4 4 3 2 2 3 4 4 4 4 4 3 3 4 5 5 5
2 3 3 3 2 2 2 2 1 2 2 3 2 2 1 1 1 1 1 1 1 2 3 3 3 2 3 3 4 4 4 3 4 4 5 5 5 5
1 1 1 1 1 1 1 1 1 1 1 2 2 1 1 1 1 1 1 1 1 2 2 2 3 2 3 3 3 3 4 4 4 5 5 6 5 6
1 1 2 2 2 2 1 1 1 1 2 2 2 2 2 1 1 1 1 1 1 2 2 2 2 2 2 2 3 3 3 4 4 5 4 5 7 6
1 1 2 2 2 2 2 2 2 2 2 2 2 2 2 1 1 1 1 1 1 2 2 1 1 2 2 3 3 2 3 4 5 5 4 5 6 7
1 1 2 2 2 2 2 2 2 1 1 2 2 2 2 2 1 1 1 1 1 2 2 1 1 2 2 3 3 3 5 4 4 5 5 5 6 8
2 2 2 2 2 2 2 2 2 2 2 2 2 2 2 2 2 2 2 2 2 2 2 2 2 3 2 1 2 3 4 6 6 5 5 5 6 5
2 2 2 2 2 2 2 2 2 2 2 2 2 2 2 2 2 2 2 2 2 2 2 2 2 2 1 2 3 4 5 6 7 8 7 6 4 4
2 2 2 2 2 2 2 2 3 2 2 2 2 2 2 2 2 2 2 2 1 1 1 1 2 2 2 2 3 4 5 6 5 6 6 8 9 10
Wind_Direction
226 222 228 234 232 227 212 207 202 250 261 254 265 273 297 297 295 299 299 300 298 294 296 298 299 299 300 301 302 304 308 309 310 310 309 310 311 314
227 225 232 233 224 223 216 220 218 220 247 254 259 280 298 303 300 300 295 300 297 294 296 296 297 298 300 299 300 302 306 307 306 309 309 309 310 313
232 227 235 228 222 224 226 226 229 219 248 274 274 283 283 285 308 305 301 298 294 296 297 297 299 303 304 300 299 302 305 308 307 307 309 310 310 311
232 227 234 230 225 227 223 235 239 227 232 262 279 285 278 276 289 300 309 308 299 298 300 298 302 306 307 306 305 303 303 306 307 308 311 312 312 312
229 225 230 223 229 231 227 234 245 243 230 240 264 270 274 279 299 303 306 306 306 305 306 303 304 306 308 307 309 309 307 308 309 311 314 315 313 312
235 230 231 227 229 229 231 231 237 237 234 235 250 261 263 274 276 285 304 299 304 309 306 304 304 307 308 308 308 306 306 307 309 311 311 315 317 314
240 236 236 238 241 237 237 231 229 230 230 238 250 264 260 265 265 266 284 302 296 285 290 300 303 302 302 303 303 300 303 308 312 314 314 316 318 316
241 243 245 243 248 249 251 247 238 235 228 229 244 252 258 260 258 255 268 300 297 271 290 302 300 295 296 293 294 300 305 309 314 317 318 317 316 316
242 246 251 256 254 243 252 251 248 247 237 227 232 241 246 244 238 242 249 269 279 270 288 292 296 293 298 301 303 302 305 311 312 313 315 316 316 315
243 242 240 247 251 244 234 239 246 248 244 236 231 239 245 241 227 233 234 265 274 272 265 276 290 290 303 301 300 305 307 310 312 311 315 317 318 316
244 242 241 242 252 248 228 234 251 260 259 251 254 262 269 264 254 199 206 263 289 288 274 258 280 304 300 295 294 309 313 313 314 318 320 322 324 325
249 247 246 248 253 249 228 224 239 245 234 243 254 272 273 259 256 216 203 230 276 278 255 274 267 324 309 293 302 308 310 312 317 320 322 324 327 330
244 249 250 253 253 255 243 227 236 236 206 209 214 225 231 229 245 255 236 217 242 264 245 262 264 291 277 296 302 301 304 311 314 315 319 323 324 324
244 250 252 256 252 254 252 246 239 226 190 188 199 221 229 240 252 284 289 279 263 255 244 240 242 259 281 292 292 299 308 308 313 314 315 321 322 319
247 255 260 263 258 245 247 239 210 192 186 198 216 225 227 230 237 287 316 312 306 292 274 260 241 250 260 278 286 293 305 307 305 309 315 316 314 314
259 262 262 266 275 250 243 237 216 214 204 208 217 221 224 210 210 219 258 299 323 318 318 303 273 251 270 272 273 287 295 292 311 314 313 310 308 303
224 216 193 194 223 226 218 220 213 203 221 208 203 204 209 218 243 236 236 259 279 300 324 337 335 306 266 263 276 282 296 304 306 313 317 313 307 300
241 204 216 218 223 224 224 221 214 212 214 215 214 214 224 229 245 254 250 241 255 273 295 322 342 345 341 326 273 272 296 304 310 312 309 308 307 308
240 216 224 221 217 222 223 219 223 225 224 222 225 221 222 231 231 239 252 257 257 267 276 295 323 322 314 314 310 298 300 309 312 311 305 300 298 302
232 228 237 232 224 222 224 226 227 223 225 228 222 217 212 220 224 226 229 242 264 273 279 291 295 292 275 285 287 299 306 301 304 305 307 305 298 299
243 240 240 229 223 227 228 230 228 226 233 232 227 225 213 213 221 225 229 232 243 259 273 286 285 303 296 303 305 305 308 310 300 295 301 308 312 314
244 241 239 229 222 225 225 223 226 224 225 233 233 226 214 210 217 223 226 233 246 250 267 291 312 323 310 296 297 302 310 319 324 318 302 288 292 301
239 237 235 227 224 228 225 225 227 225 222 223 222 221 214 213 223 222 224 228 233 238 268 296 317 325 316 300 297 303 308 316 324 329 321 319 304 292
Height
1493 1494 1494 1495 1495 1495 1496 1496 1496 1494 1493 1493 1493 1493 1493 1492 1491 1490 1489 1488 1487 1486 1484 1483 1481 1480 1479 1477 1476 1474 1473 1471 1469 1468 1467 1466 1464 1463
1489 1490 1490 1491 1491 1491 1491 1492 1492 1492 1490 1489 1489 1489 1489 1488 1487 1486 1485 1484 1483 1481 1480 1478 1477 1475 1474 1473 1471 1469 1468 1466 1465 1463 1462 1461 1460 1458
1485 1485 1486 1487 1487 1487 1487 1488 1488 1488 1486 1484 1485 1485 1485 1484 1483 1482 1481 1479 1478 1477 1475 1474 1472 1471 1469 1468 1466 1465 1463 1462 1460 1459 1458 1457 1455 1454
1481 1481 1482 1483 1483 1483 1483 1483 1483 1483 1482 1480 1480 1480 1480 1480 1479 1478 1476 1475 1474 1473 1471 1470 1468 1466 1465 1463 1461 1460 1459 1457 1456 1455 1454 1452 1451 1450
1476 1477 1478 1478 1478 1479 1479 1479 1479 1479 1478 1477 1476 1476 1476 1476 1474 1474 1473 1471 1470 1469 1467 1466 1464 1462 1460 1459 1457 1456 1454 1453 1452 1451 1449 1448 1446 1445
1472 1472 1473 1473 1474 1474 1474 1474 1475 1474 1474 1473 1472 1472 1471 1471 1471 1469 1468 1467 1466 1465 1463 1462 1460 1459 1457 1455 1453 1452 1450 1449 1448 1446 1445 1443 1442 1440
1467 1468 1468 1469 1469 1470 1470 1470 1470 1470 1469 1469 1468 1468 1467 1466 1466 1465 1464 1462 1461 1460 1459 1458 1456 1455 1453 1451 1450 1448 1446 1445 1444 1442 1441 1439 1438 1436
1462 1463 1463 1464 1464 1465 1465 1465 1466 1466 1465 1465 1464 1464 1462 1462 1461 1461 1460 1458 1457 1457 1455 1453 1453 1451 1449 1447 1446 1444 1443 1441 1440 1439 1437 1435 1433 1432
1458 1458 1459 1459 1460 1460 1460 1460 1461 1461 1461 1461 1460 1459 1458 1458 1457 1456 1456 1455 1453 1452 1451 1448 1448 1447 1446 1444 1442 1441 1439 1438 1437 1435 1433 1431 1429 1427
1453 1454 1454 1454 1455 1455 1455 1455 1456 1456 1456 1456 1456 1455 1454 1454 1453 1453 1451 1451 1450 1449 1448 1445 1444 1443 1442 1441 1439 1438 1436 1435 1433 1431 1429 1427 1425 1423
1449 1449 1449 1450 1450 1451 1451 1450 1450 1451 1451 1451 1451 1451 1450 1450 1449 1448 1447 1447 1445 1445 1444 1442 1440 1439 1437 1437 1436 1435 1433 1432 1430 1428 1425 1423 1421 1419
1444 1444 1445 1445 1446 1446 1446 1445 1445 1446 1446 1446 1446 1446 1445 1445 1445 1444 1443 1443 1442 1441 1440 1440 1438 1436 1434 1433 1432 1432 1430 1428 1426 1425 1422 1420 1418 1416
1439 1440 1440 1440 1441 1441 1441 1441 1441 1442 1441 1441 1441 1441 1441 1441 1441 1440 1440 1440 1439 1437 1437 1437 1435 1434 1433 1430 1429 1428 1427 1425 1423 1421 1419 1417 1415 1413
1435 1435 1435 1436 1436 1436 1437 1437 1437 1438 1437 1437 1437 1437 1437 1437 1437 1437 1437 1436 1436 1435 1434 1434 1432 1431 1430 1428 1426 1424 1424 1422 1420 1418 1416 1414 1412 1409
1431 1431 1431 1431 1432 1432 1433 1433 1433 1433 1433 1433 1433 1433 1433 1433 1433 1433 1433 1433 1432 1432 1431 1430 1430 1429 1428 1425 1423 1421 1420 1418 1417 1415 1413 1410 1408 1406
1427 1427 1427 1428 1428 1429 1429 1429 1429 1429 1429 1429 1429 1429 1429 1430 1429 1429 1429 1429 1428 1428 1428 1427 1427 1426 1424 1423 1421 1419 1418 1416 1414 1412 1410 1407 1405 1403
1424 1424 1424 1424 1425 1425 1425 1425 1426 1426 1426 1426 1426 1426 1426 1426 1426 1427 1427 1426 1425 1425 1424 1424 1424 1423 1422 1421 1419 1417 1415 1413 1412 1409 1407 1404 1402 1400
1421 1421 1421 1421 1421 1421 1422 1422 1422 1422 1422 1423 1423 1423 1423 1423 1423 1424 1424 1424 1423 1422 1422 1421 1420 1419 1419 1418 1418 1415 1413 1411 1409 1407 1404 1401 1398 1397
1418 1418 1418 1418 1418 1419 1419 1419 1419 1420 1420 1420 1420 1420 1420 1421 1421 1421 1421 1421 1420 1420 1419 1419 1418 1417 1416 1414 1414 1414 1411 1409 1406 1404 1402 1399 1396 1393
1416 1416 1416 1416 1416 1416 1416 1417 1417 1417 1417 1417 1418 1418 1418 1418 1419 1419 1419 1419 1418 1418 1417 1417 1416 1416 1415 1413 1411 1410 1410 1407 1405 1402 1399 1397 1394 1392
1414 1414 1414 1414 1414 1414 1414 1414 1415 1415 1415 1415 1415 1415 1416 1416 1416 1417 1417 1417 1416 1416 1415 1415 1415 1415 1414 1412 1410 1408 1407 1406 1404 1401 1398 1395 1391 1389
1412 1412 1412 1412 1412 1412 1412 1412 1412 1412 1412 1413 1413 1413 1413 1414 1414 1415 1415 1415 1414 1414 1414 1414 1413 1412 1412 1410 1408 1406 1404 1403 1402 1400 1397 1395 1392 1388
1410 1410 1409 1409 1409 1410 1409 1410 1410 1410 1410 1410 1410 1411 1411 1412 1412 1413 1413 1413 1413 1413 1412 1411 1411 1410 1410 1409 1407 1405 1403 1401 1399 1396 1395 1393 1391 1389